www.pogodaiklimat.ru
ПОГОДА в Империал Бич
Время
и дата
18:53 19.07
19:53 19.07
20:53 19.07
21:53 19.07
22:53 19.07
23:53 19.07
00:53 20.07
01:45 20.07
01:53 20.07
02:53 20.07
03:02 20.07
03:14 20.07
03:53 20.07
04:53 20.07
05:53 20.07
06:53 20.07
07:36 20.07
07:53 20.07
08:27 20.07
08:53 20.07
09:38 20.07
09:53 20.07
10:33 20.07
10:53 20.07
11:53 20.07
12:53 20.07
13:53 20.07
14:53 20.07
15:53 20.07
16:53 20.07
17:53 20.07
18:53 20.07
19:53 20.07
20:53 20.07
21:53 20.07
22:53 20.07
23:39 20.07
23:53 20.07
00:53 21.07
01:53 21.07
02:53 21.07
03:53 21.07
04:53 21.07
05:43 21.07
05:53 21.07
06:46 21.07
06:53 21.07
07:29 21.07
Ветер
(напр.,м/с)
Видим. Явления Облачность Т
(С)
Тd
(С)
f
(%)
Тe
(С)
Тes
(С)
Комфортность P
(гПа)
Po
(гПа)
Тmin
(С)
Tmax
(С)
R
(мм)
R24
(мм)
S
(см)
СЗ 5 16 км ясно 1013.3 1012.3
СЗ 3 16 км ясно 1013.6 1012.6
СЗ 4 16 км ясно 1013.9 1012.9
С 3 16 км ясно 1013.9 1012.9
СЗ 3 14 км ясно 1013.9 1012.9
СЗ 4 13 км ясно 1013.3 1012.3
СЗ 4 14 км ясно 1013.3 1012.3
СЗ 2 13 км 2/2 240 м 1012.3
СЗ 2 13 км 2/2 240 м 1012.9 1011.9
С 2 11 км ясно 1012.9 1011.9
С 2 10 км мгла 5/5 240 м 1012.3
С 2 11 км 8/8 210 м 1012.3
штиль 0 11 км 10/10 210 м 1013.3 1012.3
СЗ 3 10 км мгла 10/10 120 м 1013.6 1012.6
штиль 0 8 км мгла 10/10 120 м 1013.9 1012.9
СЗ 3 5 км дымка 10/10 120 м 1014.3 1013.3
СЗ 3 6 км мгла 10/10 150 м 1013.3
СЗ 3 6 км мгла 10/10 150 м 1014.3 1013.3
СЗ 3 6 км мгла 10/10 120 м 1013.6
СЗ 4 6 км мгла 10/10 120 м 1014.6 1013.6
СЗ 4 8 км мгла 10/10 150 м 1013.6
СЗ 4 6 км мгла 8/8 180 м 1014.6 1013.6
СЗ 6 8 км мгла 8/8 120 м 1013.6
СЗ 6 11 км 2/2 120 м 1014.3 1013.3
СЗ 6 14 км ясно 1014.3 1013.3
З 6 16 км 2/2 210 м 1013.6 1012.6
З 6 16 км ясно 1013.3 1012.3
З 6 16 км ясно 1012.9 1011.9
З 5 16 км ясно 1012.6 1011.6
З 5 16 км ясно 1012.3 1011.2
З 3 16 км ясно 1012.3 1011.2
З 3 16 км ясно 1012.6 1011.6
З 2 14 км ясно 1012.9 1011.9
штиль 0 16 км ясно 1013.3 1012.3
штиль 0 14 км ясно 1013.3 1012.3
штиль 0 10 км мгла ясно 1013.3 1012.3
ЮЗ 2 13 км 8/8 240 м 1011.9
штиль 0 13 км 10/10 210 м 1012.6 1011.6
З 3 13 км 10/10 240 м 1012.6 1011.6
СЗ 2 16 км 10/10 270 м 1011.9 1010.9
ЮЗ 2 11 км 10/10 210 м 1011.9 1010.9
штиль 0 11 км 10/10 180 м 1011.9 1010.9
штиль 0 10 км мгла 10/10 150 м 1011.9 1010.9
штиль 0 4 км дымка 10/10 120 м 1011.2
Ю 2 5 км дымка 10/10 120 м 1012.6 1011.6
штиль 0 6 км мгла 10/10 150 м 1011.9
штиль 0 6 км мгла 10/10 120 м 1012.9 1011.9
штиль 0 14 км 10/10 150 м 1012.6
Местоположение метеостанции Naval Auxiliary Landing Field: широта 32.5631 долгота -117.1100 высота над уровнем моря 7 м.
В архиве по умолчанию представлена погода в Империал Бич за последние 1-2 суток. Обновление информации о фактической погоде в базе происходит ежечасно! Архивные данные за месяц целиком и за предыдущие месяцы Вы можете получить, выбрав интересующий диапазон дат из раскрывающегося списка и нажав кнопку "Ввод!".
Внимание! Архив погоды МЕТАР в базе сайта по станциям, не включенным в климатический монитор, хранится не более 60 дней. Нет смысла пытаться выбрать более раннюю дату.
*Определитесь, кто Вы:
Внимание! Время в таблицах - местное (без учета летнего времени). Для получения всемирного времени необходимо вычесть поправку, которая равна -8 ч.
Смотрите также архив погоды в соседних городах и на ближайших метеорологических станциях:
Партнеры нашего сайта:      
Пояснения к столбцам:
  • Ветер - указаны скорость ветра в м/с - средняя за 10 мин, порывы в срок и между сроками (в фигурных скобках) и направление, откуда дует ветер: С - северный,
  • СВ - северо-восточный, В - восточный, ЮВ - юго-восточный, Ю - южный, ЮЗ - юго-западный, З - западный, СЗ - северо-западный.
  • Видимость - горизонтальная дальность видимости в метрах или километрах. При видимости от 1 до 10 км при отсутствии осадков обычно наблюдается дымка, при ухудшении видимости до 1 км и менее - туман. В сухую погоду видимость может ухудшаться дымом, пылью или мглою.
  • Явления - указаны атмосферные явления, наблюдавшиеся в срок или в последний час перед сроком; фигурными скобками обозначены явления, наблюдавшиеся между сроками (за 1-3 часа до срока); квадратными скобками обозначены град или гололедные отложения с указанием их диаметра в мм.
  • Облачность - указаны через наклонную черту общая и нижняя облачность в баллах и высота нижней границы облаков в метрах; квадратными скобками обозначены формы облаков: Ci - перистые, Cs - перисто-слоистые, Cc - перисто-кучевые, Ac - высококучевые, As - высокослоистые, Sc - слоисто-кучевые, Ns - слоисто-дождевые, Cu - кучевые, Cb - кучево-дождевые. Подробнее классификацию облаков см. в Атласе облаков (PDF).
  • T - Температура воздуха - температура, измеренная на высоте 2 м над землей.
  • Td - Температура точки росы - температура, при понижении до которой содержащийся в воздухе водяной пар достигнет насыщения.
  • f - Относительная влажность воздуха - влажноcть воздуха, измеренная на высоте 2 м над землей.
  • Te - Эффективная температура - температура, которую ощущает одетый по сезону человек в тени. Характеристика душности погоды. При расчете учитывается влияние влажности воздуха и скорости ветра на теплоощущения человека.
  • Tes - Эффективная температура на солнце - температура, которую ощущает человек, с поправкой на солнечный нагрев. Характеристика знойности погоды. Зависит от высоты солнца над горизонтом, облачности и скорости ветра. Ночью, в пасмурную погоду, а также при ветре 12 м/с и более поправка равна нулю.
  • P - Атмосферное давление - приведенное к уровню моря атмосферное давление.
  • Po - Атмосферное давление - измеренное на уровне метеостанции атмосферное давление.
  • Tmin - Минимальная температура - минимум температуры воздуха на высоте 2 м над землей.
  • Tmax - Максимальная температура - максимум температуры воздуха на высоте 2 м над землей.
  • R - Количество осадков - Количество выпавших осадков за период времени, мм. При наведении курсора мыши на число - период времени, за который выпало указанное количество осадков.
  • R24 - Количество осадков - Количество выпавших осадков за 24 часа, мм.
  • S - Снежный покров - Высота снежного покрова, см. При наведении курсора мыши на число - состояние снежного покрова и степень покрытия местности в баллах.